Location: Équennes
(49.7375°N, 1.9622°E)
Time: 08:46:44
(UTC+00:00)

Cosmos 1656 - Pass Details

Date: 06 October 2023
Orbit: 797 x 849 km, 71.1° (Epoch: 10 December)

Event Time Altitude Azimuth Distance (km) Brightness Sun altitude
Rises 21:39:24 0° 332° (NNW) 3,319 7.7 -38.8°
Reaches altitude 10° 21:41:49 10° 334° (NNW) 2,389 6.7 -39.0°
Enters shadow 21:43:44 22° 338° (NNW) 1,686 5.7 -39.2°
